TimePST,TemperatureF,Dew PointF,Humidity,Sea Level PressureIn,VisibilityMPH,Wind Direction,Wind SpeedMPH,Gust SpeedMPH,PrecipitationIn,Events,Conditions,WindDirDegrees,DateUTC
12:53 AM,28.9,25.0,85,30.10,9.0,Calm,Calm,-,N/A,,Clear,0,2012-12-07 08:53:00
1:53 AM,30.0,27.0,88,30.09,7.0,Calm,Calm,-,N/A,,Clear,0,2012-12-07 09:53:00
2:53 AM,30.9,27.0,85,30.08,8.0,NW,4.6,-,N/A,,Clear,320,2012-12-07 10:53:00
3:53 AM,28.9,27.0,92,30.07,7.0,West,3.5,-,N/A,,Clear,260,2012-12-07 11:53:00
4:53 AM,30.9,28.0,89,30.06,8.0,Calm,Calm,-,N/A,,Clear,0,2012-12-07 12:53:00
5:53 AM,30.9,28.0,89,30.04,9.0,Calm,Calm,-,N/A,,Clear,0,2012-12-07 13:53:00
6:53 AM,28.9,26.1,89,30.02,8.0,NW,3.5,-,N/A,,Clear,310,2012-12-07 14:53:00
7:53 AM,30.0,27.0,88,30.00,8.0,Calm,Calm,-,N/A,,Clear,0,2012-12-07 15:53:00
8:53 AM,33.1,30.0,89,29.98,9.0,Calm,Calm,-,N/A,,Clear,0,2012-12-07 16:53:00
9:53 AM,37.0,30.9,79,29.98,10.0,SW,3.5,-,N/A,,Clear,230,2012-12-07 17:53:00
10:53 AM,41.0,33.1,73,29.94,10.0,Calm,Calm,-,N/A,,Clear,0,2012-12-07 18:53:00
11:53 AM,45.0,34.0,65,29.91,10.0,NNE,4.6,-,N/A,,Partly Cloudy,20,2012-12-07 19:53:00
12:53 PM,48.0,36.0,63,29.89,10.0,Calm,Calm,-,N/A,,Partly Cloudy,0,2012-12-07 20:53:00
1:53 PM,48.0,33.1,56,29.89,10.0,WNW,12.7,-,N/A,,Scattered Clouds,300,2012-12-07 21:53:00
2:53 PM,46.0,34.0,63,29.90,10.0,NW,3.5,-,N/A,,Partly Cloudy,320,2012-12-07 22:53:00
3:53 PM,46.9,28.0,48,29.92,10.0,West,26.5,35.7,N/A,,Scattered Clouds,280,2012-12-07 23:53:00
4:53 PM,45.0,21.9,40,29.94,10.0,West,23.0,33.4,N/A,,Scattered Clouds,280,2012-12-08 00:53:00
5:53 PM,44.1,23.0,43,29.98,10.0,WNW,23.0,31.1,N/A,,Clear,300,2012-12-08 01:53:00
6:53 PM,41.0,27.0,57,30.02,10.0,NW,11.5,-,N/A,,Clear,320,2012-12-08 02:53:00
7:53 PM,37.9,28.0,68,30.04,10.0,NNW,6.9,-,N/A,,Clear,340,2012-12-08 03:53:00
8:53 PM,39.9,26.1,58,30.05,10.0,WNW,12.7,-,N/A,,Clear,290,2012-12-08 04:53:00
9:53 PM,41.0,24.1,51,30.06,10.0,West,11.5,-,N/A,,Clear,280,2012-12-08 05:53:00
10:53 PM,39.9,23.0,51,30.07,10.0,WNW,8.1,-,N/A,,Clear,290,2012-12-08 06:53:00
11:53 PM,37.0,24.1,59,30.09,10.0,West,3.5,-,N/A,,Clear,280,2012-12-08 07:53:00